| time (UTC) | temp F | wind direction | speed knots | gust knots | rain 1hr in | rain 24hr in | rain mn in | humidity % | barometer mb |
| 20260504175137 | 72 | 235 | 11.3 | 16.5 | 0.00 | 0.22 | 0.22 | 62 | |
| 20260504174635 | 71 | 251 | 11.3 | 16.5 | 0.00 | 0.22 | 0.22 | 62 | |
| 20260504174131 | 70 | 229 | 10.4 | 16.5 | 0.00 | 0.22 | 0.22 | 64 | |
| 20260504173629 | 70 | 221 | 11.3 | 18.2 | 0.00 | 0.22 | 0.22 | 62 | |
| 20260504173126 | 71 | 232 | 9.6 | 12.2 | 0.00 | 0.22 | 0.22 | 61 | |
| 20260504172622 | 71 | 237 | 13.0 | 16.5 | 0.00 | 0.22 | 0.22 | 60 | |
| 20260504172119 | 71 | 198 | 9.6 | 15.6 | 0.00 | 0.22 | 0.22 | 64 | |
| 20260504171615 | 71 | 226 | 11.3 | 19.1 | 0.00 | 0.22 | 0.22 | 65 | |
| 20260504171113 | 71 | 219 | 9.6 | 12.2 | 0.00 | 0.22 | 0.22 | 62 | |
| 20260504170608 | 71 | 222 | 7.0 | 11.3 | 0.00 | 0.22 | 0.22 | 63 | |
| 20260504170107 | 70 | 181 | 5.2 | 12.2 | 0.00 | 0.22 | 0.22 | 61 | |
| 20260504150952 | 59 | 184 | 10.4 | 13.0 | 0.00 | 0.21 | 0.21 | 84 | |
| 20260504150449 | 59 | 77 | 7.0 | 8.7 | 0.00 | 0.21 | 0.21 | 83 | |
| 20260504140915 | 58 | 219 | 11.3 | 13.0 | 0.00 | 0.20 | 0.20 | 81 | |
| 20260504140411 | 58 | 190 | 10.4 | 15.6 | 0.00 | 0.20 | 0.20 | 81 | |
| 20260504130337 | 59 | 160 | 7.8 | 14.8 | 0.00 | 0.20 | 0.20 | 80 | |
| 20260504120300 | 60 | 213 | 7.8 | 19.1 | 0.00 | 0.20 | 0.20 | 76 | |
| 20260504110224 | 56 | 139 | 9.6 | 16.5 | 0.00 | 0.20 | 0.20 | 84 | |
| 20260504100147 | 56 | 187 | 10.4 | 13.0 | 0.00 | 0.20 | 0.20 | 83 | |
| 20260504090110 | 57 | 237 | 7.0 | 12.2 | 0.52 | 0.20 | 0.20 | 81 | |
| 20260504081541 | 58 | 225 | 16.5 | 20.0 | 0.00 | 0.03 | 0.03 | 83 | |
| 20260504081036 | 58 | 221 | 7.8 | 11.3 | 0.00 | 0.03 | 0.03 | 81 | |
| 20260504080533 | 59 | 245 | 10.4 | 16.5 | 0.00 | 0.03 | 0.03 | 79 | |
| 20260504050346 | 57 | 116 | 1.7 | 2.6 | 0.00 | 0.00 | 0.00 | 72 | |
| 20260504045843 | 57 | 223 | 1.7 | 3.5 | 0.00 | 0.05 | 0.05 | 74 | |
| 20260504045338 | 57 | 163 | 1.7 | 5.2 | 0.00 | 0.05 | 0.05 | 73 | |
| 20260504044835 | 57 | 174 | 0.9 | 3.5 | 0.00 | 0.05 | 0.05 | 73 | |
| 20260504044332 | 57 | 167 | 2.6 | 5.2 | 0.00 | 0.05 | 0.05 | 73 | |
| 20260504043830 | 57 | 40 | 2.6 | 7.8 | 0.00 | 0.05 | 0.05 | 73 | |
| 20260504043326 | 57 | 180 | 2.6 | 7.8 | 0.00 | 0.05 | 0.05 | 74 | |
| 20260504042823 | 57 | 132 | 0.9 | 1.7 | 0.00 | 0.05 | 0.05 | 73 | |
| 20260504042320 | 57 | 165 | 1.7 | 6.1 | 0.00 | 0.05 | 0.05 | 73 | |
| 20260504041816 | 58 | 190 | 0.9 | 1.7 | 0.00 | 0.05 | 0.05 | 73 | |
| 20260504041312 | 58 | 193 | 1.7 | 2.6 | 0.00 | 0.05 | 0.05 | 72 | |
| 20260504040809 | 58 | 151 | 0.9 | 1.7 | 0.00 | 0.05 | 0.05 | 73 | |
| 20260504040306 | 58 | 160 | 1.7 | 2.6 | 0.00 | 0.05 | 0.05 | 72 | |
| 20260504035802 | 58 | 150 | 0.9 | 6.1 | 0.00 | 0.05 | 0.05 | 72 | |
| 20260504035259 | 58 | 186 | 2.6 | 7.8 | 0.00 | 0.05 | 0.05 | 72 | |
| 20260504034757 | 58 | 106 | 2.6 | 5.2 | 0.00 | 0.05 | 0.05 | 71 | |
| 20260504034254 | 58 | 192 | 2.6 | 6.1 | 0.00 | 0.05 | 0.05 | 72 | |
| 20260504033751 | 59 | 100 | 2.6 | 8.7 | 0.00 | 0.05 | 0.05 | 70 | |
| 20260504033249 | 59 | 188 | 1.7 | 8.7 | 0.00 | 0.05 | 0.05 | 70 | |
| 20260504032745 | 59 | 135 | 5.2 | 9.6 | 0.00 | 0.05 | 0.05 | 70 | |
| 20260504032242 | 59 | 193 | 4.3 | 13.0 | 0.00 | 0.05 | 0.05 | 71 | |
| 20260504031739 | 59 | 240 | 1.7 | 9.6 | 0.00 | 0.05 | 0.05 | 72 | |
| 20260504031237 | 59 | 171 | 2.6 | 6.1 | 0.00 | 0.05 | 0.05 | 72 | |
| 20260504030732 | 60 | 131 | 1.7 | 3.5 | 0.00 | 0.05 | 0.05 | 70 | |
| 20260504030230 | 60 | 192 | 1.7 | 13.0 | 0.00 | 0.05 | 0.05 | 69 | |
| 20260504025726 | 60 | 194 | 2.6 | 5.2 | 0.00 | 0.05 | 0.05 | 68 | |
| 20260504025223 | 60 | 192 | 3.5 | 6.1 | 0.00 | 0.05 | 0.05 | 69 | |
| 20260504024720 | 60 | 218 | 1.7 | 2.6 | 0.00 | 0.05 | 0.05 | 68 | |
| 20260504024217 | 60 | 168 | 0.9 | 5.2 | 0.00 | 0.05 | 0.05 | 67 | |
| 20260504023713 | 60 | 211 | 7.8 | 15.6 | 0.00 | 0.05 | 0.05 | 66 | |
| 20260504023209 | 60 | 116 | 1.7 | 8.7 | 0.00 | 0.05 | 0.05 | 68 | |
| 20260504022706 | 60 | 190 | 2.6 | 6.1 | 0.00 | 0.05 | 0.05 | 68 | |
| 20260504022202 | 60 | 118 | 2.6 | 6.1 | 0.00 | 0.05 | 0.05 | 67 | |
| 20260504021700 | 61 | 180 | 1.7 | 7.0 | 0.00 | 0.05 | 0.05 | 67 | |
| 20260504021156 | 61 | 74 | 1.7 | 11.3 | 0.00 | 0.05 | 0.05 | 67 | |
| 20260504020653 | 61 | 124 | 3.5 | 5.2 | 0.00 | 0.05 | 0.05 | 67 | |
| 20260504020149 | 61 | 158 | 1.7 | 7.0 | 0.00 | 0.05 | 0.05 | 67 | |
| 20260504015646 | 61 | 64 | 1.7 | 5.2 | 0.00 | 0.05 | 0.05 | 66 | |
| 20260504015142 | 60 | 221 | 3.5 | 7.8 | 0.00 | 0.05 | 0.05 | 68 | |
| 20260504014638 | 60 | 114 | 1.7 | 6.1 | 0.00 | 0.05 | 0.05 | 68 | |
| 20260504014135 | 60 | 156 | 4.3 | 6.1 | 0.00 | 0.05 | 0.05 | 69 | |
| 20260504013633 | 60 | 180 | 1.7 | 6.1 | 0.00 | 0.05 | 0.05 | 69 | |
| 20260504013130 | 61 | 170 | 2.6 | 6.1 | 0.00 | 0.05 | 0.05 | 67 | |
| 20260504012627 | 61 | 212 | 2.6 | 3.5 | 0.07 | 0.05 | 0.05 | 67 | |
| 20260504012125 | 61 | 127 | 1.7 | 3.5 | 0.12 | 0.05 | 0.05 | 68 | |
| 20260504011621 | 61 | 232 | 1.7 | 2.6 | 0.12 | 0.04 | 0.04 | 68 | |
| 20260504011118 | 62 | 129 | 0.9 | 5.2 | 0.19 | 0.03 | 0.03 | 66 | |
| 20260504010614 | 63 | 157 | 1.7 | 3.5 | 0.12 | 0.02 | 0.02 | 62 | |
| 20260504010110 | 64 | 181 | 4.3 | 12.2 | 0.00 | 0.00 | 0.00 | 54 | |
| 20260504005607 | 64 | 155 | 1.7 | 3.5 | 0.00 | 0.00 | 0.00 | 53 | |
| 20260504005104 | 64 | 251 | 5.2 | 7.8 | 0.00 | 0.00 | 0.00 | 53 | |
| 20260504004602 | 64 | 184 | 3.5 | 7.0 | 0.00 | 0.00 | 0.00 | 54 | |
| 20260504004059 | 65 | 221 | 2.6 | 7.0 | 0.00 | 0.00 | 0.00 | 54 | |
| 20260504003555 | 65 | 80 | 0.9 | 5.2 | 0.00 | 0.00 | 0.00 | 53 | |
| 20260504003052 | 65 | 100 | 1.7 | 7.0 | 0.00 | 0.00 | 0.00 | 50 | |
| 20260504002548 | 65 | 200 | 2.6 | 7.0 | 0.00 | 0.00 | 0.00 | 50 | |
| 20260504002046 | 66 | 174 | 4.3 | 9.6 | 0.00 | 0.00 | 0.00 | 49 | |
| 20260504001544 | 66 | 218 | 8.7 | 12.2 | 0.00 | 0.00 | 0.00 | 48 | |
| 20260504001039 | 67 | 206 | 2.6 | 9.6 | 0.00 | 0.00 | 0.00 | 46 | |
| 20260504000537 | 67 | 210 | 7.0 | 12.2 | 0.00 | 0.00 | 0.00 | 45 | |
| 20260504000034 | 67 | 200 | 7.0 | 12.2 | 0.00 | 0.00 | 0.00 | 45 | |
| 20260503235532 | 67 | 185 | 7.8 | 12.2 | 0.00 | 0.00 | 0.00 | 45 | |
| 20260503235029 | 67 | 173 | 10.4 | 13.0 | 0.00 | 0.00 | 0.00 | 45 | |
| 20260503234526 | 67 | 209 | 6.1 | 12.2 | 0.00 | 0.00 | 0.00 | 45 | |
| 20260503234025 | 67 | 212 | 7.0 | 12.2 | 0.00 | 0.00 | 0.00 | 45 | |
| 20260503233520 | 68 | 221 | 7.8 | 13.0 | 0.00 | 0.00 | 0.00 | 45 | |
| 20260503233017 | 68 | 217 | 12.2 | 18.2 | 0.00 | 0.00 | 0.00 | 44 | |
| 20260503232514 | 68 | 196 | 9.6 | 14.8 | 0.00 | 0.00 | 0.00 | 44 | |
| 20260503232012 | 68 | 191 | 7.8 | 12.2 | 0.00 | 0.00 | 0.00 | 44 | |
| 20260503231509 | 68 | 192 | 6.1 | 13.9 | 0.00 | 0.00 | 0.00 | 44 | |
| 20260503231006 | 69 | 213 | 5.2 | 12.2 | 0.00 | 0.00 | 0.00 | 43 | |
| 20260503230502 | 69 | 197 | 7.0 | 15.6 | 0.00 | 0.00 | 0.00 | 43 | |
| 20260503230000 | 69 | 213 | 13.0 | 16.5 | 0.00 | 0.00 | 0.00 | 42 | |
| 20260503225456 | 69 | 220 | 11.3 | 15.6 | 0.00 | 0.00 | 0.00 | 41 | |
| 20260503224952 | 69 | 206 | 13.9 | 18.2 | 0.00 | 0.00 | 0.00 | 41 | |
| 20260503224449 | 69 | 188 | 11.3 | 22.6 | 0.00 | 0.00 | 0.00 | 41 | |
| 20260503223947 | 69 | 232 | 9.6 | 13.9 | 0.00 | 0.00 | 0.00 | 42 | |
| 20260503223445 | 69 | 233 | 9.6 | 18.2 | 0.00 | 0.00 | 0.00 | 40 | |
| 20260503222939 | 69 | 245 | 13.9 | 16.5 | 0.00 | 0.00 | 0.00 | 41 | |
| 20260503222439 | 69 | 236 | 12.2 | 20.9 | 0.00 | 0.00 | 0.00 | 41 | |
| 20260503221936 | 69 | 252 | 10.4 | 15.6 | 0.00 | 0.00 | 0.00 | 40 | |
| 20260503221435 | 69 | 261 | 12.2 | 15.6 | 0.00 | 0.00 | 0.00 | 42 | |
| 20260503220931 | 69 | 214 | 7.8 | 12.2 | 0.00 | 0.00 | 0.00 | 41 | |
| 20260503220428 | 69 | 220 | 11.3 | 18.2 | 0.00 | 0.00 | 0.00 | 42 | |
| 20260503215925 | 69 | 241 | 14.8 | 21.7 | 0.00 | 0.00 | 0.00 | 40 | |
| 20260503215421 | 69 | 243 | 13.0 | 20.9 | 0.00 | 0.00 | 0.00 | 42 | |
| 20260503214919 | 69 | 257 | 11.3 | 19.1 | 0.00 | 0.00 | 0.00 | 42 | |
| 20260503214416 | 69 | 232 | 12.2 | 18.2 | 0.00 | 0.00 | 0.00 | 42 | |
| 20260503213914 | 69 | 240 | 8.7 | 14.8 | 0.00 | 0.00 | 0.00 | 43 | |
| 20260503213411 | 69 | 199 | 10.4 | 18.2 | 0.00 | 0.00 | 0.00 | 41 | |
| 20260503212908 | 69 | 206 | 12.2 | 20.0 | 0.00 | 0.00 | 0.00 | 41 | |
| 20260503212406 | 68 | 205 | 10.4 | 18.2 | 0.00 | 0.00 | 0.00 | 42 | |
| 20260503211902 | 68 | 190 | 10.4 | 21.7 | 0.00 | 0.00 | 0.00 | 42 | |
| 20260503211359 | 68 | 208 | 9.6 | 16.5 | 0.00 | 0.00 | 0.00 | 44 | |
| 20260503210854 | 68 | 204 | 13.9 | 22.6 | 0.00 | 0.00 | 0.00 | 41 | |
| 20260503210352 | 68 | 209 | 13.9 | 19.1 | 0.00 | 0.00 | 0.00 | 42 | |
| 20260503205847 | 68 | 216 | 11.3 | 20.9 | 0.00 | 0.00 | 0.00 | 43 | |
| 20260503205344 | 67 | 217 | 9.6 | 21.7 | 0.00 | 0.00 | 0.00 | 42 | |
| 20260503204840 | 67 | 198 | 13.9 | 20.9 | 0.00 | 0.00 | 0.00 | 42 | |
| 20260503204337 | 67 | 228 | 22.6 | 30.4 | 0.00 | 0.00 | 0.00 | 42 | |
| 20260503203834 | 67 | 202 | 10.4 | 28.7 | 0.00 | 0.00 | 0.00 | 43 | |
| 20260503203332 | 67 | 248 | 15.6 | 20.0 | 0.00 | 0.00 | 0.00 | 42 | |
| 20260503202829 | 67 | 263 | 12.2 | 18.2 | 0.00 | 0.00 | 0.00 | 41 | |
| 20260503202327 | 67 | 188 | 16.5 | 20.9 | 0.00 | 0.00 | 0.00 | 41 | |
| 20260503201825 | 66 | 202 | 18.2 | 25.2 | 0.00 | 0.00 | 0.00 | 42 | |
| 20260503201321 | 66 | 201 | 18.2 | 27.8 | 0.00 | 0.00 | 0.00 | 42 | |
| 20260503200819 | 66 | 209 | 13.9 | 20.9 | 0.00 | 0.00 | 0.00 | 43 | |
| 20260503200315 | 67 | 211 | 18.2 | 20.9 | 0.00 | 0.00 | 0.00 | 42 | |
| 20260503195812 | 66 | 194 | 9.6 | 19.1 | 0.00 | 0.00 | 0.00 | 44 | |
| 20260503195309 | 66 | 207 | 19.1 | 28.7 | 0.00 | 0.00 | 0.00 | 43 | |
| 20260503194806 | 66 | 206 | 20.9 | 26.9 | 0.00 | 0.00 | 0.00 | 43 | |
| 20260503194302 | 65 | 244 | 13.0 | 23.5 | 0.00 | 0.00 | 0.00 | 45 | |
| 20260503193758 | 65 | 174 | 9.6 | 23.5 | 0.00 | 0.00 | 0.00 | 44 | |
| 20260503193254 | 66 | 223 | 16.5 | 21.7 | 0.00 | 0.00 | 0.00 | 43 | |
| 20260503192750 | 65 | 198 | 12.2 | 23.5 | 0.00 | 0.00 | 0.00 | 46 | |
| 20260503192246 | 65 | 230 | 13.9 | 20.0 | 0.00 | 0.00 | 0.00 | 44 | |
| 20260503191743 | 65 | 224 | 12.2 | 20.9 | 0.00 | 0.00 | 0.00 | 46 | |
| 20260503191240 | 64 | 253 | 10.4 | 19.1 | 0.00 | 0.00 | 0.00 | 48 | |
| 20260503190737 | 64 | 256 | 14.8 | 23.5 | 0.00 | 0.00 | 0.00 | 46 | |
| 20260503190233 | 64 | 260 | 15.6 | 20.9 | 0.00 | 0.00 | 0.00 | 46 | |
| 20260503185730 | 64 | 220 | 18.2 | 23.5 | 0.00 | 0.00 | 0.00 | 47 | |
| 20260503185226 | 64 | 249 | 11.3 | 20.0 | 0.00 | 0.00 | 0.00 | 49 | |
| 20260503184721 | 63 | 204 | 13.9 | 20.0 | 0.00 | 0.00 | 0.00 | 47 | |
| 20260503184217 | 63 | 221 | 13.9 | 23.5 | 0.00 | 0.00 | 0.00 | 50 | |
| 20260503183714 | 64 | 192 | 15.6 | 20.9 | 0.00 | 0.00 | 0.00 | 46 | |
| 20260503183211 | 63 | 220 | 11.3 | 22.6 | 0.00 | 0.00 | 0.00 | 50 | |
| 20260503182709 | 63 | 199 | 13.9 | 16.5 | 0.00 | 0.00 | 0.00 | 47 | |
| 20260503182208 | 63 | 208 | 14.8 | 18.2 | 0.00 | 0.00 | 0.00 | 50 | |
| 20260503181703 | 63 | 217 | 9.6 | 16.5 | 0.00 | 0.00 | 0.00 | 48 | |
| 20260503181200 | 63 | 241 | 13.0 | 20.0 | 0.00 | 0.00 | 0.00 | 49 | |
| 20260503180657 | 63 | 222 | 13.0 | 16.5 | 0.00 | 0.00 | 0.00 | 47 | |
| 20260503180156 | 63 | 215 | 15.6 | 20.0 | 0.00 | 0.00 | 0.00 | 49 | |
| 20260503175652 | 63 | 281 | 17.4 | 20.0 | 0.00 | 0.00 | 0.00 | 48 |